Time,TemperatureF,DewpointF,PressureIn,WindDirection,WindDirectionDegrees,WindSpeedMPH,WindSpeedGustMPH,Humidity,HourlyPrecipIn,Conditions,Clouds,dailyrainin,SolarRadiationWatts/m^2,SoftwareType,DateUTC
2013-01-13 00:03:00,37.0,37.0,30.10,East,93,0.0,0.0,100,0.00,RA,,0.00,0.0,WeatherDisplay:10.37,2013-01-13 00:03:00,
2013-01-13 00:08:00,36.9,36.9,30.10,East,88,0.0,0.0,100,0.00,RA,,0.00,0.0,WeatherDisplay:10.37,2013-01-13 00:08:00,
2013-01-13 00:13:00,36.9,36.9,30.10,East,96,0.0,0.0,100,0.00,,,0.00,0.0,WeatherDisplay:10.37,2013-01-13 00:13:00,
2013-01-13 00:19:00,36.9,36.9,30.10,East,95,0.0,0.0,100,0.00,,,0.00,0.0,WeatherDisplay:10.37,2013-01-13 00:19:00,
2013-01-13 00:24:00,36.9,36.9,30.10,East,92,0.0,0.0,100,0.00,,,0.00,0.0,WeatherDisplay:10.37,2013-01-13 00:24:00,
2013-01-13 00:29:00,36.8,36.8,30.10,ESE,103,0.0,0.0,100,0.00,,,0.00,0.0,WeatherDisplay:10.37,2013-01-13 00:29:00,
2013-01-13 00:34:00,36.8,36.8,30.10,East,100,0.0,0.0,100,0.00,,,0.00,0.0,WeatherDisplay:10.37,2013-01-13 00:34:00,
2013-01-13 00:39:00,36.8,36.8,30.10,ESE,102,0.0,0.0,100,0.00,,,0.00,0.0,WeatherDisplay:10.37,2013-01-13 00:39:00,
2013-01-13 00:44:00,36.8,36.8,30.10,East,99,0.0,0.0,100,0.00,,,0.00,0.0,WeatherDisplay:10.37,2013-01-13 00:44:00,
2013-01-13 00:50:00,36.6,36.6,30.10,ESE,103,0.0,0.0,100,0.00,,,0.00,0.0,WeatherDisplay:10.37,2013-01-13 00:50:00,
2013-01-13 00:55:00,36.6,36.6,30.10,East,90,0.0,0.0,100,0.00,,,0.00,0.0,WeatherDisplay:10.37,2013-01-13 00:55:00,
2013-01-13 01:00:00,36.6,36.6,30.10,East,97,0.0,1.0,100,0.00,,,0.00,0.0,WeatherDisplay:10.37,2013-01-13 01:00:00,
2013-01-13 01:05:00,36.5,36.5,30.10,East,92,0.0,0.0,100,0.00,,,0.00,0.0,WeatherDisplay:10.37,2013-01-13 01:05:00,
2013-01-13 01:10:00,36.5,36.5,30.10,ESE,103,0.0,0.0,100,0.00,,,0.00,0.0,WeatherDisplay:10.37,2013-01-13 01:10:00,
2013-01-13 01:15:00,36.3,36.3,30.10,East,93,0.0,0.0,100,0.00,,,0.00,0.0,WeatherDisplay:10.37,2013-01-13 01:15:00,
2013-01-13 01:21:00,36.3,36.3,30.10,East,92,0.0,0.0,100,0.00,,,0.00,0.0,WeatherDisplay:10.37,2013-01-13 01:21:00,
2013-01-13 01:26:00,36.3,36.3,30.10,East,96,0.0,0.0,100,0.00,,,0.00,0.0,WeatherDisplay:10.37,2013-01-13 01:26:00,
2013-01-13 01:31:00,36.2,36.2,30.10,East,92,0.0,0.0,100,0.00,,,0.00,0.0,WeatherDisplay:10.37,2013-01-13 01:31:00,
2013-01-13 01:36:00,36.2,36.2,30.10,East,96,0.0,0.0,100,0.00,,,0.00,0.0,WeatherDisplay:10.37,2013-01-13 01:36:00,
2013-01-13 01:41:00,36.2,36.2,30.10,East,99,0.0,0.0,100,0.00,,,0.00,0.0,WeatherDisplay:10.37,2013-01-13 01:41:00,
2013-01-13 01:46:00,36.0,36.0,30.10,East,93,0.0,0.0,100,0.00,,,0.00,0.0,WeatherDisplay:10.37,2013-01-13 01:46:00,
2013-01-13 01:52:00,36.0,36.0,30.10,East,90,0.0,0.0,100,0.00,,,0.00,0.0,WeatherDisplay:10.37,2013-01-13 01:52:00,
2013-01-13 01:57:00,36.0,36.0,30.10,ESE,102,0.0,0.0,100,0.00,,,0.00,0.0,WeatherDisplay:10.37,2013-01-13 01:57:00,
2013-01-13 02:02:00,36.0,36.0,30.11,East,100,0.0,0.0,100,0.00,,,0.00,0.0,WeatherDisplay:10.37,2013-01-13 02:02:00,
2013-01-13 02:07:00,35.9,35.9,30.11,East,100,0.0,0.0,100,0.00,,,0.00,0.0,WeatherDisplay:10.37,2013-01-13 02:07:00,
2013-01-13 02:12:00,35.9,35.9,30.11,East,95,0.0,0.0,100,0.00,,,0.00,0.0,WeatherDisplay:10.37,2013-01-13 02:12:00,
2013-01-13 02:18:00,35.9,35.9,30.11,East,95,0.0,0.0,100,0.00,,,0.00,0.0,WeatherDisplay:10.37,2013-01-13 02:18:00,
2013-01-13 02:23:00,36.0,36.0,30.11,East,96,0.0,0.0,100,0.00,,,0.00,0.0,WeatherDisplay:10.37,2013-01-13 02:23:00,
2013-01-13 02:28:00,36.0,36.0,30.11,East,89,0.0,0.0,100,0.00,,,0.00,0.0,WeatherDisplay:10.37,2013-01-13 02:28:00,
2013-01-13 02:33:00,36.2,36.2,30.11,ESE,102,0.0,0.0,100,0.00,,,0.00,0.0,WeatherDisplay:10.37,2013-01-13 02:33:00,
2013-01-13 02:38:00,36.3,36.3,30.11,East,100,0.0,0.0,100,0.00,,,0.00,0.0,WeatherDisplay:10.37,2013-01-13 02:38:00,
2013-01-13 02:43:00,36.3,36.3,30.11,East,90,0.0,0.0,100,0.00,,,0.00,0.0,WeatherDisplay:10.37,2013-01-13 02:43:00,
2013-01-13 02:49:00,36.3,36.3,30.11,East,92,0.0,0.0,100,0.00,,,0.00,0.0,WeatherDisplay:10.37,2013-01-13 02:49:00,
2013-01-13 02:54:00,36.5,36.5,30.11,East,89,0.0,0.0,100,0.00,,,0.00,0.0,WeatherDisplay:10.37,2013-01-13 02:54:00,
2013-01-13 02:59:00,36.5,36.5,30.11,East,100,0.0,0.0,100,0.00,,,0.00,0.0,WeatherDisplay:10.37,2013-01-13 02:59:00,
2013-01-13 03:04:00,36.5,36.5,30.11,East,96,0.0,0.0,100,0.00,,,0.00,0.0,WeatherDisplay:10.37,2013-01-13 03:04:00,
2013-01-13 03:09:00,36.3,36.3,30.11,ESE,102,0.0,0.0,100,0.00,,,0.00,0.0,WeatherDisplay:10.37,2013-01-13 03:09:00,
2013-01-13 03:15:00,36.3,36.3,30.11,East,99,2.3,2.3,100,0.00,,,0.00,0.0,WeatherDisplay:10.37,2013-01-13 03:15:00,
2013-01-13 03:20:00,36.5,36.5,30.11,East,96,1.2,0.0,100,0.00,,,0.00,0.0,WeatherDisplay:10.37,2013-01-13 03:20:00,
2013-01-13 03:25:00,36.5,36.5,30.11,East,95,0.0,0.0,100,0.00,,,0.00,0.0,WeatherDisplay:10.37,2013-01-13 03:25:00,
2013-01-13 03:30:00,36.6,36.6,30.11,East,92,1.2,0.0,100,0.00,,,0.00,0.0,WeatherDisplay:10.37,2013-01-13 03:30:00,
2013-01-13 03:36:00,36.6,36.6,30.11,East,95,0.0,0.0,100,0.00,,,0.00,0.0,WeatherDisplay:10.37,2013-01-13 03:36:00,
2013-01-13 03:41:00,36.6,36.6,30.11,East,100,0.0,0.0,100,0.00,,,0.00,0.0,WeatherDisplay:10.37,2013-01-13 03:41:00,
2013-01-13 03:46:00,36.6,36.6,30.11,ESE,102,2.3,2.3,100,0.00,,,0.00,0.0,WeatherDisplay:10.37,2013-01-13 03:46:00,
2013-01-13 03:51:00,36.6,36.6,30.10,East,99,2.3,2.3,100,0.00,,,0.00,0.0,WeatherDisplay:10.37,2013-01-13 03:51:00,
2013-01-13 03:56:00,36.6,36.6,30.10,East,93,0.0,0.0,100,0.00,,,0.00,0.0,WeatherDisplay:10.37,2013-01-13 03:56:00,
2013-01-13 04:01:00,36.6,36.6,30.10,East,100,0.0,0.0,100,0.00,,,0.00,0.0,WeatherDisplay:10.37,2013-01-13 04:01:00,
2013-01-13 04:06:00,36.6,36.6,30.10,East,92,0.0,0.0,100,0.00,,,0.00,0.0,WeatherDisplay:10.37,2013-01-13 04:06:00,
2013-01-13 04:11:00,36.6,36.6,30.10,East,90,0.0,0.0,100,0.00,,,0.00,0.0,WeatherDisplay:10.37,2013-01-13 04:11:00,
2013-01-13 04:16:00,36.6,36.6,30.10,East,99,0.0,0.0,100,0.00,,,0.00,0.0,WeatherDisplay:10.37,2013-01-13 04:16:00,
2013-01-13 04:22:00,36.6,36.6,30.10,East,99,0.0,0.0,100,0.00,,,0.00,0.0,WeatherDisplay:10.37,2013-01-13 04:22:00,
2013-01-13 04:27:00,36.5,36.5,30.10,East,93,0.0,0.0,100,0.00,,,0.00,0.0,WeatherDisplay:10.37,2013-01-13 04:27:00,
2013-01-13 04:32:00,36.5,36.5,30.10,East,99,2.3,2.3,100,0.00,,,0.00,0.0,WeatherDisplay:10.37,2013-01-13 04:32:00,
2013-01-13 04:37:00,36.5,36.5,30.10,SSW,209,1.2,0.0,100,0.00,,,0.00,0.0,WeatherDisplay:10.37,2013-01-13 04:37:00,
2013-01-13 04:42:00,36.5,36.5,30.10,North,349,2.3,2.3,100,0.00,,,0.00,0.0,WeatherDisplay:10.37,2013-01-13 04:42:00,
2013-01-13 04:47:00,36.5,36.5,30.10,SW,215,3.5,3.5,100,0.00,,,0.00,0.0,WeatherDisplay:10.37,2013-01-13 04:47:00,
2013-01-13 04:53:00,36.6,36.6,30.10,NNW,330,2.3,2.3,100,0.00,,,0.00,0.0,WeatherDisplay:10.37,2013-01-13 04:53:00,
2013-01-13 04:58:00,36.6,36.6,30.10,North,0,3.5,3.5,100,0.00,,,0.00,0.0,WeatherDisplay:10.37,2013-01-13 04:58:00,
2013-01-13 05:00:00,36.6,36.6,30.10,NW,322,2.0,2.0,100,0.00,,,0.00,0.0,WeatherDisplay:10.37,2013-01-13 05:00:00,
2013-01-13 05:03:00,36.6,36.6,30.10,North,353,2.3,0.0,100,0.00,,,0.00,0.0,WeatherDisplay:10.37,2013-01-13 05:03:00,
2013-01-13 05:09:00,36.6,36.6,30.10,North,0,2.3,2.3,100,0.00,,,0.00,0.0,WeatherDisplay:10.37,2013-01-13 05:09:00,
2013-01-13 05:14:00,36.8,36.8,30.10,North,0,0.0,0.0,100,0.00,,,0.00,0.0,WeatherDisplay:10.37,2013-01-13 05:14:00,
2013-01-13 05:19:00,36.8,36.8,30.10,WNW,291,1.2,0.0,100,0.00,,,0.00,0.0,WeatherDisplay:10.37,2013-01-13 05:19:00,
2013-01-13 05:25:00,36.8,36.8,30.10,WSW,246,0.0,0.0,100,0.00,,,0.00,0.0,WeatherDisplay:10.37,2013-01-13 05:25:00,
2013-01-13 05:30:00,36.8,36.8,30.10,WSW,244,0.0,2.0,100,0.00,,,0.00,0.0,WeatherDisplay:10.37,2013-01-13 05:30:00,
2013-01-13 05:35:00,36.8,36.8,30.10,SW,236,0.0,0.0,100,0.00,,,0.00,0.0,WeatherDisplay:10.37,2013-01-13 05:35:00,
2013-01-13 05:40:00,36.8,36.8,30.10,SW,236,2.3,2.3,100,0.00,,,0.00,0.0,WeatherDisplay:10.37,2013-01-13 05:40:00,
2013-01-13 05:45:00,36.8,36.8,30.10,SW,236,0.0,0.0,100,0.00,,,0.00,0.0,WeatherDisplay:10.37,2013-01-13 05:45:00,
2013-01-13 05:51:00,36.8,36.8,30.10,SW,233,3.5,3.5,100,0.00,,,0.00,0.0,WeatherDisplay:10.37,2013-01-13 05:51:00,
2013-01-13 05:56:00,36.8,36.8,30.10,SW,229,0.0,0.0,100,0.00,,,0.00,0.0,WeatherDisplay:10.37,2013-01-13 05:56:00,
2013-01-13 06:01:00,36.8,36.8,30.10,SW,229,0.0,0.0,100,0.00,,,0.00,0.0,WeatherDisplay:10.37,2013-01-13 06:01:00,
2013-01-13 06:06:00,36.8,36.8,30.10,North,352,0.0,0.0,100,0.00,,,0.00,0.0,WeatherDisplay:10.37,2013-01-13 06:06:00,
2013-01-13 06:11:00,36.6,36.6,30.10,North,0,2.3,2.3,100,0.00,,,0.00,0.0,WeatherDisplay:10.37,2013-01-13 06:11:00,
2013-01-13 06:16:00,36.6,36.6,30.10,North,0,2.3,2.3,100,0.00,,,0.00,0.0,WeatherDisplay:10.37,2013-01-13 06:16:00,
2013-01-13 06:21:00,36.8,36.8,30.10,North,0,2.3,2.3,100,0.00,,,0.00,0.0,WeatherDisplay:10.37,2013-01-13 06:21:00,
2013-01-13 06:26:00,36.8,36.8,30.10,NNW,330,3.5,3.5,100,0.00,,,0.00,0.0,WeatherDisplay:10.37,2013-01-13 06:26:00,
2013-01-13 06:32:00,36.8,36.8,30.09,NNW,339,3.5,3.5,100,0.00,,,0.00,0.0,WeatherDisplay:10.37,2013-01-13 06:32:00,
2013-01-13 06:37:00,36.8,36.8,30.10,North,0,4.6,4.6,100,0.00,,,0.00,0.0,WeatherDisplay:10.37,2013-01-13 06:37:00,
2013-01-13 06:42:00,36.8,36.8,30.10,NNW,347,3.5,3.5,100,0.00,,,0.00,0.0,WeatherDisplay:10.37,2013-01-13 06:42:00,
2013-01-13 06:47:00,36.8,36.8,30.10,NW,323,2.3,2.3,100,0.00,,,0.00,0.0,WeatherDisplay:10.37,2013-01-13 06:47:00,
2013-01-13 06:53:00,36.9,36.9,30.10,North,0,4.6,4.6,100,0.00,,,0.00,0.0,WeatherDisplay:10.37,2013-01-13 06:53:00,
2013-01-13 06:58:00,36.8,36.8,30.09,NNW,328,5.8,5.8,100,0.00,,,0.00,0.0,WeatherDisplay:10.37,2013-01-13 06:58:00,
2013-01-13 07:03:00,36.8,36.8,30.10,NNW,347,4.6,4.6,100,0.00,,,0.00,0.0,WeatherDisplay:10.37,2013-01-13 07:03:00,
2013-01-13 07:08:00,36.8,36.8,30.10,NNW,333,3.5,3.5,100,0.00,,,0.00,0.0,WeatherDisplay:10.37,2013-01-13 07:08:00,
2013-01-13 07:13:00,36.9,36.9,30.10,North,357,3.5,3.5,100,0.00,,,0.00,0.0,WeatherDisplay:10.37,2013-01-13 07:13:00,
2013-01-13 07:18:00,36.9,36.9,30.10,North,0,5.8,5.8,100,0.00,,,0.00,0.0,WeatherDisplay:10.37,2013-01-13 07:18:00,
2013-01-13 07:23:00,36.9,36.9,30.09,North,0,6.9,6.9,100,0.00,,,0.00,0.0,WeatherDisplay:10.37,2013-01-13 07:23:00,
2013-01-13 07:29:00,36.9,36.9,30.09,North,354,6.9,6.9,100,0.00,,,0.00,0.0,WeatherDisplay:10.37,2013-01-13 07:29:00,
2013-01-13 07:34:00,36.9,36.9,30.10,North,0,9.2,9.2,100,0.00,,,0.00,0.0,WeatherDisplay:10.37,2013-01-13 07:34:00,
2013-01-13 07:39:00,36.9,36.9,30.09,NW,323,5.0,5.0,100,0.00,,,0.00,0.0,WeatherDisplay:10.37,2013-01-13 07:39:00,
2013-01-13 07:44:00,37.0,37.0,30.09,NNW,330,8.1,8.1,100,0.00,,,0.00,0.0,WeatherDisplay:10.37,2013-01-13 07:44:00,
2013-01-13 07:49:00,37.0,37.0,30.10,North,349,3.5,3.5,100,0.00,,,0.00,0.0,WeatherDisplay:10.37,2013-01-13 07:49:00,
2013-01-13 07:55:00,37.0,37.0,30.10,West,281,5.8,5.8,100,0.00,,,0.00,0.0,WeatherDisplay:10.37,2013-01-13 07:55:00,
2013-01-13 08:00:00,37.0,37.0,30.10,WNW,285,5.8,5.8,100,0.00,,,0.00,0.0,WeatherDisplay:10.37,2013-01-13 08:00:00,
2013-01-13 08:05:00,37.0,37.0,30.09,North,349,6.9,6.9,100,0.00,,,0.00,0.0,WeatherDisplay:10.37,2013-01-13 08:05:00,
2013-01-13 08:10:00,36.9,36.9,30.09,NNW,330,6.9,6.9,100,0.00,OVC,,0.00,0.0,WeatherDisplay:10.37,2013-01-13 08:10:00,
2013-01-13 08:15:00,36.9,36.9,30.09,North,0,4.6,4.6,100,0.00,OVC,,0.00,0.0,WeatherDisplay:10.37,2013-01-13 08:15:00,
2013-01-13 08:20:00,36.9,36.9,30.09,NNW,328,6.9,6.9,100,0.00,OVC,,0.00,0.0,WeatherDisplay:10.37,2013-01-13 08:20:00,
2013-01-13 08:26:00,37.0,37.0,30.09,NNW,342,11.5,11.5,100,0.00,OVC,,0.00,0.0,WeatherDisplay:10.37,2013-01-13 08:26:00,
2013-01-13 08:31:00,37.0,37.0,30.09,North,356,9.0,9.0,100,0.00,OVC,,0.00,0.0,WeatherDisplay:10.37,2013-01-13 08:31:00,
2013-01-13 08:36:00,37.0,37.0,30.10,North,0,6.9,6.9,100,0.00,OVC,,0.00,0.0,WeatherDisplay:10.37,2013-01-13 08:36:00,
2013-01-13 08:41:00,36.9,36.9,30.10,SSW,209,4.6,4.6,100,0.00,OVC,,0.00,0.0,WeatherDisplay:10.37,2013-01-13 08:41:00,
2013-01-13 08:46:00,36.9,36.9,30.10,West,271,8.1,8.1,100,0.00,OVC,,0.00,0.0,WeatherDisplay:10.37,2013-01-13 08:46:00,
2013-01-13 08:51:00,36.9,36.9,30.10,NNW,335,5.8,5.8,100,0.00,OVC,,0.00,5.0,WeatherDisplay:10.37,2013-01-13 08:51:00,
2013-01-13 08:57:00,37.0,37.0,30.10,WSW,240,6.9,6.9,100,0.00,SCT,,0.00,5.0,WeatherDisplay:10.37,2013-01-13 08:57:00,
2013-01-13 09:02:00,37.0,37.0,30.10,NNW,336,8.1,8.1,100,0.00,OVC,,0.00,5.0,WeatherDisplay:10.37,2013-01-13 09:02:00,
2013-01-13 09:07:00,36.9,36.9,30.09,NNW,328,5.8,5.8,100,0.00,OVC,,0.00,7.0,WeatherDisplay:10.37,2013-01-13 09:07:00,
2013-01-13 09:12:00,36.9,36.9,30.09,North,354,4.6,4.6,100,0.00,OVC,,0.00,9.0,WeatherDisplay:10.37,2013-01-13 09:12:00,
2013-01-13 09:17:00,36.9,36.9,30.09,WSW,246,8.1,8.1,100,0.00,OVC,,0.00,11.0,WeatherDisplay:10.37,2013-01-13 09:17:00,
2013-01-13 09:23:00,36.9,36.9,30.09,North,354,10.4,10.4,100,0.00,OVC,,0.00,12.0,WeatherDisplay:10.37,2013-01-13 09:23:00,
2013-01-13 09:28:00,36.9,36.9,30.09,North,359,12.7,12.7,100,0.00,OVC,,0.00,12.0,WeatherDisplay:10.37,2013-01-13 09:28:00,
2013-01-13 09:33:00,37.0,37.0,30.09,WNW,291,12.7,12.7,100,0.00,OVC,,0.00,12.0,WeatherDisplay:10.37,2013-01-13 09:33:00,
2013-01-13 09:38:00,37.0,37.0,30.09,North,356,11.5,11.5,100,0.00,OVC,,0.00,16.0,WeatherDisplay:10.37,2013-01-13 09:38:00,
2013-01-13 09:44:00,37.0,37.0,30.09,West,277,10.4,10.4,100,0.00,OVC,,0.00,18.0,WeatherDisplay:10.37,2013-01-13 09:44:00,
2013-01-13 09:49:00,37.0,37.0,30.09,NNW,328,10.4,10.4,100,0.00,OVC,,0.00,25.0,WeatherDisplay:10.37,2013-01-13 09:49:00,
2013-01-13 09:54:00,37.0,37.0,30.09,North,352,7.0,7.0,100,0.00,OVC,,0.00,26.0,WeatherDisplay:10.37,2013-01-13 09:54:00,
2013-01-13 09:59:00,37.2,37.2,30.09,NNW,333,4.6,4.6,100,0.00,OVC,,0.00,28.0,WeatherDisplay:10.37,2013-01-13 09:59:00,
2013-01-13 10:05:00,37.0,37.0,30.09,SSW,196,8.1,8.1,100,0.00,BKN,,0.01,33.0,WeatherDisplay:10.37,2013-01-13 10:05:00,
2013-01-13 10:10:00,37.0,37.0,30.09,NNW,339,8.1,8.1,100,0.01,RA,,0.01,28.0,WeatherDisplay:10.37,2013-01-13 10:10:00,
2013-01-13 10:15:00,37.2,37.2,30.09,NNW,335,6.0,12.0,100,0.00,OVC,,0.01,28.0,WeatherDisplay:10.37,2013-01-13 10:15:00,
2013-01-13 10:20:00,37.2,37.2,30.09,North,359,5.8,5.8,100,0.01,OVC,,0.01,33.0,WeatherDisplay:10.37,2013-01-13 10:20:00,
2013-01-13 10:25:00,37.2,37.2,30.08,South,188,8.1,8.1,100,0.02,RA,,0.02,40.0,WeatherDisplay:10.37,2013-01-13 10:25:00,
2013-01-13 10:30:00,37.3,37.3,30.09,North,359,10.0,10.0,100,0.02,RA,,0.02,39.0,WeatherDisplay:10.37,2013-01-13 10:30:00,
2013-01-13 10:35:00,37.3,37.3,30.08,North,350,10.4,10.4,100,0.02,OVC,,0.02,30.0,WeatherDisplay:10.37,2013-01-13 10:35:00,
2013-01-13 10:41:00,37.3,37.3,30.08,North,353,13.8,13.8,100,0.02,OVC,,0.02,32.0,WeatherDisplay:10.37,2013-01-13 10:41:00,
2013-01-13 10:46:00,37.5,37.5,30.08,NNW,330,6.9,6.9,100,0.02,OVC,,0.02,30.0,WeatherDisplay:10.37,2013-01-13 10:46:00,
2013-01-13 10:51:00,37.5,37.5,30.08,North,0,10.4,10.4,100,0.02,OVC,,0.02,30.0,WeatherDisplay:10.37,2013-01-13 10:51:00,
2013-01-13 10:56:00,37.5,37.5,30.08,North,349,6.9,6.9,100,0.02,OVC,,0.02,33.0,WeatherDisplay:10.37,2013-01-13 10:56:00,
2013-01-13 11:01:00,37.5,37.5,30.08,North,353,9.0,9.0,100,0.02,OVC,,0.02,37.0,WeatherDisplay:10.37,2013-01-13 11:01:00,
2013-01-13 11:07:00,37.6,37.6,30.07,NNW,346,10.4,10.4,100,0.02,RA,,0.03,44.0,WeatherDisplay:10.37,2013-01-13 11:07:00,
2013-01-13 11:12:00,37.6,37.6,30.07,SSW,203,10.4,10.4,100,0.02,RA,,0.03,37.0,WeatherDisplay:10.37,2013-01-13 11:12:00,
2013-01-13 11:17:00,37.6,37.6,30.07,WNW,298,10.4,10.4,100,0.02,OVC,,0.03,39.0,WeatherDisplay:10.37,2013-01-13 11:17:00,
2013-01-13 11:22:00,37.6,37.6,30.07,WNW,288,11.5,11.5,100,0.02,OVC,,0.03,39.0,WeatherDisplay:10.37,2013-01-13 11:22:00,
2013-01-13 11:27:00,37.6,37.6,30.07,North,0,11.5,11.5,100,0.01,OVC,,0.03,37.0,WeatherDisplay:10.37,2013-01-13 11:27:00,
2013-01-13 11:33:00,37.6,37.6,30.07,NW,319,11.5,11.5,100,0.01,OVC,,0.03,32.0,WeatherDisplay:10.37,2013-01-13 11:33:00,
2013-01-13 11:38:00,37.6,37.6,30.07,North,0,16.1,16.1,100,0.01,OVC,,0.03,40.0,WeatherDisplay:10.37,2013-01-13 11:38:00,
2013-01-13 11:43:00,37.6,37.6,30.07,SSW,208,11.5,11.5,100,0.01,OVC,,0.03,48.0,WeatherDisplay:10.37,2013-01-13 11:43:00,
2013-01-13 11:48:00,37.8,37.8,30.07,NNW,342,11.5,11.5,100,0.01,OVC,,0.03,55.0,WeatherDisplay:10.37,2013-01-13 11:48:00,
2013-01-13 11:53:00,37.8,37.8,30.06,North,0,10.4,10.4,100,0.01,OVC,,0.03,60.0,WeatherDisplay:10.37,2013-01-13 11:53:00,
2013-01-13 11:59:00,37.9,37.9,30.06,NNW,328,11.5,11.5,100,0.01,BKN,,0.03,60.0,WeatherDisplay:10.37,2013-01-13 11:59:00,
2013-01-13 12:04:00,37.9,37.9,30.06,North,0,12.0,12.0,100,0.01,BKN,,0.03,67.0,WeatherDisplay:10.37,2013-01-13 12:04:00,
2013-01-13 12:09:00,37.9,37.9,30.06,North,353,14.0,14.0,100,0.00,OVC,,0.03,58.0,WeatherDisplay:10.37,2013-01-13 12:09:00,
2013-01-13 12:14:00,38.0,38.0,30.06,North,356,11.5,11.5,100,0.01,RA,,0.04,84.0,WeatherDisplay:10.37,2013-01-13 12:14:00,
2013-01-13 12:19:00,38.0,38.0,30.06,SW,232,13.0,13.0,100,0.01,RA,,0.04,83.0,WeatherDisplay:10.37,2013-01-13 12:19:00,
2013-01-13 12:24:00,38.0,38.0,30.06,North,359,12.0,12.0,100,0.01,BKN,,0.04,70.0,WeatherDisplay:10.37,2013-01-13 12:24:00,
2013-01-13 12:30:00,38.0,38.0,30.06,West,261,10.4,10.4,100,0.01,OVC,,0.04,53.0,WeatherDisplay:10.37,2013-01-13 12:30:00,
2013-01-13 12:35:00,38.0,38.0,30.06,North,359,10.4,10.4,100,0.01,OVC,,0.04,44.0,WeatherDisplay:10.37,2013-01-13 12:35:00,
2013-01-13 12:40:00,38.0,38.0,30.05,North,359,5.8,5.8,100,0.01,OVC,,0.04,39.0,WeatherDisplay:10.37,2013-01-13 12:40:00,
2013-01-13 12:45:00,38.0,38.0,30.05,NNW,344,14.0,14.0,100,0.01,OVC,,0.04,39.0,WeatherDisplay:10.37,2013-01-13 12:45:00,
2013-01-13 12:50:00,37.9,37.9,30.05,NNW,335,17.3,17.3,100,0.01,OVC,,0.04,42.0,WeatherDisplay:10.37,2013-01-13 12:50:00,
2013-01-13 12:55:00,37.9,37.9,30.05,North,0,16.1,16.1,100,0.01,OVC,,0.04,39.0,WeatherDisplay:10.37,2013-01-13 12:55:00,
2013-01-13 13:00:00,37.9,37.9,30.04,WNW,292,6.0,18.0,100,0.00,OVC,,0.04,40.0,WeatherDisplay:10.37,2013-01-13 13:00:00,
2013-01-13 13:06:00,37.9,37.9,30.04,SW,229,11.5,11.5,100,0.01,OVC,,0.04,42.0,WeatherDisplay:10.37,2013-01-13 13:06:00,
2013-01-13 13:11:00,37.9,37.9,30.04,WNW,294,10.4,10.4,100,0.01,OVC,,0.04,46.0,WeatherDisplay:10.37,2013-01-13 13:11:00,
2013-01-13 13:16:00,38.0,38.0,30.04,North,352,11.5,11.5,100,0.00,OVC,,0.04,51.0,WeatherDisplay:10.37,2013-01-13 13:16:00,
2013-01-13 13:21:00,38.0,38.0,30.04,NW,326,12.7,12.7,100,0.00,OVC,,0.04,46.0,WeatherDisplay:10.37,2013-01-13 13:21:00,
2013-01-13 13:27:00,37.9,37.9,30.04,SW,226,11.5,11.5,100,0.00,OVC,,0.04,46.0,WeatherDisplay:10.37,2013-01-13 13:27:00,
2013-01-13 13:32:00,38.0,38.0,30.04,North,352,13.8,13.8,100,0.00,OVC,,0.04,48.0,WeatherDisplay:10.37,2013-01-13 13:32:00,
2013-01-13 13:37:00,38.0,38.0,30.04,SW,229,17.3,17.3,100,0.00,OVC,,0.04,49.0,WeatherDisplay:10.37,2013-01-13 13:37:00,
2013-01-13 13:42:00,38.0,38.0,30.04,NNW,342,16.1,16.1,100,0.00,BKN,,0.04,53.0,WeatherDisplay:10.37,2013-01-13 13:42:00,
2013-01-13 13:47:00,38.0,38.0,30.03,North,0,11.5,11.5,100,0.00,OVC,,0.04,48.0,WeatherDisplay:10.37,2013-01-13 13:47:00,
2013-01-13 13:53:00,38.2,38.2,30.03,WSW,241,6.9,6.9,100,0.00,OVC,,0.04,46.0,WeatherDisplay:10.37,2013-01-13 13:53:00,
2013-01-13 13:58:00,38.2,38.2,30.03,North,353,11.5,11.5,100,0.01,RA,,0.05,46.0,WeatherDisplay:10.37,2013-01-13 13:58:00,
2013-01-13 14:03:00,38.2,38.2,30.03,WNW,292,10.4,10.4,100,0.01,RA,,0.05,42.0,WeatherDisplay:10.37,2013-01-13 14:03:00,
2013-01-13 14:08:00,38.2,38.2,30.03,WSW,247,11.5,11.5,100,0.01,OVC,,0.05,39.0,WeatherDisplay:10.37,2013-01-13 14:08:00,
2013-01-13 14:13:00,38.0,38.0,30.03,SSW,202,10.4,10.4,100,0.01,OVC,,0.05,33.0,WeatherDisplay:10.37,2013-01-13 14:13:00,
2013-01-13 14:18:00,38.0,38.0,30.03,SW,232,11.5,11.5,100,0.01,OVC,,0.05,32.0,WeatherDisplay:10.37,2013-01-13 14:18:00,
2013-01-13 14:23:00,38.2,38.2,30.03,North,0,7.0,7.0,100,0.01,OVC,,0.05,30.0,WeatherDisplay:10.37,2013-01-13 14:23:00,
2013-01-13 14:29:00,38.0,38.0,30.03,WNW,292,12.7,12.7,100,0.01,OVC,,0.05,23.0,WeatherDisplay:10.37,2013-01-13 14:29:00,
2013-01-13 14:34:00,38.0,38.0,30.03,SW,224,10.4,10.4,100,0.01,OVC,,0.05,19.0,WeatherDisplay:10.37,2013-01-13 14:34:00,
2013-01-13 14:39:00,37.9,37.9,30.03,South,188,12.7,12.7,100,0.01,OVC,,0.05,30.0,WeatherDisplay:10.37,2013-01-13 14:39:00,
2013-01-13 14:44:00,37.9,37.9,30.03,WNW,284,11.5,11.5,100,0.02,RA,,0.06,42.0,WeatherDisplay:10.37,2013-01-13 14:44:00,
2013-01-13 14:49:00,37.9,37.9,30.03,North,0,8.1,8.1,100,0.02,RA,,0.06,42.0,WeatherDisplay:10.37,2013-01-13 14:49:00,
2013-01-13 14:54:00,37.9,37.9,30.03,WNW,299,11.5,11.5,100,0.01,BKN,,0.06,40.0,WeatherDisplay:10.37,2013-01-13 14:54:00,
2013-01-13 14:59:00,37.9,37.9,30.03,NNW,328,10.0,10.0,100,0.01,BKN,,0.06,35.0,WeatherDisplay:10.37,2013-01-13 14:59:00,
2013-01-13 15:05:00,37.9,37.9,30.03,West,272,8.1,8.1,100,0.01,BKN,,0.06,18.0,WeatherDisplay:10.37,2013-01-13 15:05:00,
2013-01-13 15:10:00,37.9,37.9,30.03,NNW,339,10.4,10.4,100,0.01,OVC,,0.06,12.0,WeatherDisplay:10.37,2013-01-13 15:10:00,
2013-01-13 15:15:00,38.0,38.0,30.03,South,185,11.5,11.5,100,0.01,OVC,,0.06,14.0,WeatherDisplay:10.37,2013-01-13 15:15:00,
2013-01-13 15:20:00,38.0,38.0,30.02,WSW,247,11.5,11.5,100,0.01,OVC,,0.06,12.0,WeatherDisplay:10.37,2013-01-13 15:20:00,
2013-01-13 15:25:00,38.0,38.0,30.02,NNW,336,3.5,3.5,100,0.01,OVC,,0.06,12.0,WeatherDisplay:10.37,2013-01-13 15:25:00,
2013-01-13 15:31:00,38.2,38.2,30.02,NNW,340,11.5,11.5,100,0.01,BKN,,0.06,19.0,WeatherDisplay:10.37,2013-01-13 15:31:00,
2013-01-13 15:36:00,38.2,38.2,30.02,SW,227,11.5,11.5,100,0.01,SCT,,0.06,18.0,WeatherDisplay:10.37,2013-01-13 15:36:00,
2013-01-13 15:41:00,38.3,38.3,30.02,North,0,14.0,14.0,100,0.01,SCT,,0.06,16.0,WeatherDisplay:10.37,2013-01-13 15:41:00,
2013-01-13 15:46:00,38.3,38.3,30.02,SSW,199,11.5,11.5,100,0.00,SCT,,0.06,12.0,WeatherDisplay:10.37,2013-01-13 15:46:00,
2013-01-13 15:51:00,38.3,38.3,30.02,West,281,12.7,12.7,100,0.00,SCT,,0.06,9.0,WeatherDisplay:10.37,2013-01-13 15:51:00,
2013-01-13 15:56:00,38.5,38.5,30.02,SW,234,10.4,10.4,100,0.00,CLR,,0.06,7.0,WeatherDisplay:10.37,2013-01-13 15:56:00,
2013-01-13 16:01:00,38.5,38.5,30.02,SSW,196,13.8,13.8,100,0.00,OVC,,0.06,5.0,WeatherDisplay:10.37,2013-01-13 16:01:00,
2013-01-13 16:06:00,38.5,38.5,30.02,WSW,243,11.5,11.5,100,0.00,OVC,,0.06,5.0,WeatherDisplay:10.37,2013-01-13 16:06:00,
2013-01-13 16:11:00,38.5,38.5,30.02,North,0,8.0,8.0,100,0.00,OVC,,0.06,5.0,WeatherDisplay:10.37,2013-01-13 16:11:00,
2013-01-13 16:17:00,38.6,38.6,30.02,WSW,244,11.5,11.5,100,0.00,OVC,,0.06,0.0,WeatherDisplay:10.37,2013-01-13 16:17:00,
2013-01-13 16:22:00,38.6,38.6,30.02,WNW,296,12.7,12.7,100,0.00,OVC,,0.06,0.0,WeatherDisplay:10.37,2013-01-13 16:22:00,
2013-01-13 16:27:00,38.6,38.6,30.02,SW,223,11.5,11.5,100,0.00,OVC,,0.06,0.0,WeatherDisplay:10.37,2013-01-13 16:27:00,
2013-01-13 16:32:00,38.8,38.8,30.02,NNW,336,5.8,5.8,100,0.00,OVC,,0.06,0.0,WeatherDisplay:10.37,2013-01-13 16:32:00,
2013-01-13 16:37:00,38.8,38.8,30.02,North,0,3.5,3.5,100,0.00,OVC,,0.06,0.0,WeatherDisplay:10.37,2013-01-13 16:37:00,
2013-01-13 16:42:00,38.8,38.8,30.02,NW,322,8.1,8.1,100,0.00,OVC,,0.06,0.0,WeatherDisplay:10.37,2013-01-13 16:42:00,
2013-01-13 16:48:00,38.8,38.8,30.02,SSE,155,10.4,10.4,100,0.00,CLR,,0.06,0.0,WeatherDisplay:10.37,2013-01-13 16:48:00,
2013-01-13 16:53:00,38.8,38.8,30.02,SW,230,6.9,6.9,100,0.00,CLR,,0.06,0.0,WeatherDisplay:10.37,2013-01-13 16:53:00,
2013-01-13 16:58:00,38.8,38.8,30.02,West,277,3.5,3.5,100,0.00,CLR,,0.06,0.0,WeatherDisplay:10.37,2013-01-13 16:58:00,
2013-01-13 17:03:00,38.8,38.8,30.02,NNW,336,3.5,3.5,100,0.00,CLR,,0.06,0.0,WeatherDisplay:10.37,2013-01-13 17:03:00,
2013-01-13 17:08:00,38.8,38.8,30.02,North,0,3.5,3.5,100,0.00,CLR,,0.06,0.0,WeatherDisplay:10.37,2013-01-13 17:08:00,
2013-01-13 17:13:00,38.9,38.9,30.02,WNW,294,5.8,5.8,100,0.00,CLR,,0.06,0.0,WeatherDisplay:10.37,2013-01-13 17:13:00,
2013-01-13 17:18:00,38.9,38.9,30.02,West,265,2.3,2.3,100,0.00,CLR,,0.06,0.0,WeatherDisplay:10.37,2013-01-13 17:18:00,
2013-01-13 17:24:00,38.9,38.9,30.02,SW,236,4.6,4.6,100,0.00,CLR,,0.06,0.0,WeatherDisplay:10.37,2013-01-13 17:24:00,
2013-01-13 17:29:00,38.9,38.9,30.02,NW,316,2.3,2.3,100,0.00,CLR,,0.06,0.0,WeatherDisplay:10.37,2013-01-13 17:29:00,
2013-01-13 17:34:00,39.1,39.1,30.02,West,272,2.3,0.0,100,0.00,CLR,,0.06,0.0,WeatherDisplay:10.37,2013-01-13 17:34:00,
2013-01-13 17:39:00,39.1,39.1,30.02,SW,230,2.3,2.3,100,0.00,CLR,,0.06,0.0,WeatherDisplay:10.37,2013-01-13 17:39:00,
2013-01-13 17:44:00,39.2,39.2,30.02,NNW,335,4.0,4.0,100,0.00,CLR,,0.06,0.0,WeatherDisplay:10.37,2013-01-13 17:44:00,
2013-01-13 17:49:00,39.2,39.2,30.02,NNW,336,5.8,5.8,100,0.00,CLR,,0.06,0.0,WeatherDisplay:10.37,2013-01-13 17:49:00,
2013-01-13 17:54:00,39.2,39.2,30.02,North,353,6.9,6.9,100,0.00,CLR,,0.06,0.0,WeatherDisplay:10.37,2013-01-13 17:54:00,
2013-01-13 18:00:00,39.3,39.3,30.02,North,0,2.3,2.3,100,0.00,CLR,,0.06,0.0,WeatherDisplay:10.37,2013-01-13 18:00:00,
2013-01-13 18:05:00,39.3,39.3,30.02,NNW,347,5.8,5.8,100,0.00,CLR,,0.06,0.0,WeatherDisplay:10.37,2013-01-13 18:05:00,
2013-01-13 18:10:00,39.5,39.5,30.02,NNW,339,4.6,4.6,100,0.00,CLR,,0.06,0.0,WeatherDisplay:10.37,2013-01-13 18:10:00,
2013-01-13 18:15:00,39.5,39.5,30.02,North,0,5.0,5.0,100,0.00,CLR,,0.06,0.0,WeatherDisplay:10.37,2013-01-13 18:15:00,
2013-01-13 18:20:00,39.6,39.6,30.02,SW,232,2.3,2.3,100,0.00,CLR,,0.06,0.0,WeatherDisplay:10.37,2013-01-13 18:20:00,
2013-01-13 18:26:00,39.8,39.8,30.02,West,264,3.5,3.5,100,0.00,CLR,,0.06,0.0,WeatherDisplay:10.37,2013-01-13 18:26:00,
2013-01-13 18:31:00,39.8,39.8,30.02,NNW,329,2.3,2.3,100,0.00,CLR,,0.06,0.0,WeatherDisplay:10.37,2013-01-13 18:31:00,
2013-01-13 18:36:00,39.8,39.8,30.02,NW,316,2.3,2.3,100,0.00,CLR,,0.06,0.0,WeatherDisplay:10.37,2013-01-13 18:36:00,
2013-01-13 18:41:00,39.9,39.9,30.02,SSW,205,3.5,3.5,100,0.00,CLR,,0.06,0.0,WeatherDisplay:10.37,2013-01-13 18:41:00,
2013-01-13 18:46:00,39.9,39.9,30.01,North,0,3.5,3.5,100,0.00,CLR,,0.06,0.0,WeatherDisplay:10.37,2013-01-13 18:46:00,
2013-01-13 18:52:00,39.9,39.9,30.02,North,0,6.9,6.9,100,0.00,CLR,,0.06,0.0,WeatherDisplay:10.37,2013-01-13 18:52:00,
2013-01-13 18:57:00,39.9,39.9,30.01,North,0,2.3,2.3,100,0.00,CLR,,0.06,0.0,WeatherDisplay:10.37,2013-01-13 18:57:00,
2013-01-13 19:02:00,39.9,39.9,30.01,NW,325,7.0,7.0,100,0.00,CLR,,0.06,0.0,WeatherDisplay:10.37,2013-01-13 19:02:00,
2013-01-13 19:07:00,39.9,39.9,30.01,WNW,282,0.0,0.0,100,0.00,CLR,,0.06,0.0,WeatherDisplay:10.37,2013-01-13 19:07:00,
2013-01-13 19:12:00,39.9,39.9,30.01,SW,222,2.3,0.0,100,0.00,CLR,,0.06,0.0,WeatherDisplay:10.37,2013-01-13 19:12:00,
2013-01-13 19:17:00,39.8,39.8,30.01,WSW,240,1.2,1.2,100,0.00,CLR,,0.06,0.0,WeatherDisplay:10.37,2013-01-13 19:17:00,
2013-01-13 19:23:00,39.6,39.6,30.01,WSW,240,2.3,2.3,100,0.00,CLR,,0.06,0.0,WeatherDisplay:10.37,2013-01-13 19:23:00,
2013-01-13 19:28:00,39.6,39.6,30.01,WSW,241,3.5,3.5,100,0.00,CLR,,0.06,0.0,WeatherDisplay:10.37,2013-01-13 19:28:00,
2013-01-13 19:33:00,39.5,39.5,30.01,NNW,347,1.2,1.2,100,0.00,CLR,,0.06,0.0,WeatherDisplay:10.37,2013-01-13 19:33:00,
2013-01-13 19:38:00,39.5,39.5,30.01,SSW,212,0.0,0.0,100,0.00,CLR,,0.06,0.0,WeatherDisplay:10.37,2013-01-13 19:38:00,
2013-01-13 19:43:00,39.3,39.3,30.01,SW,230,2.3,2.3,100,0.00,CLR,,0.06,0.0,WeatherDisplay:10.37,2013-01-13 19:43:00,
2013-01-13 19:48:00,39.3,39.3,30.01,SW,232,1.2,0.0,100,0.00,CLR,,0.06,0.0,WeatherDisplay:10.37,2013-01-13 19:48:00,
2013-01-13 19:53:00,39.2,39.2,30.00,West,271,0.0,0.0,100,0.00,CLR,,0.06,0.0,WeatherDisplay:10.37,2013-01-13 19:53:00,
2013-01-13 19:58:00,39.1,39.1,30.00,WNW,287,1.2,0.0,100,0.00,CLR,,0.06,0.0,WeatherDisplay:10.37,2013-01-13 19:58:00,
2013-01-13 20:03:00,39.2,39.2,30.00,West,274,1.2,1.2,100,0.00,CLR,,0.06,0.0,WeatherDisplay:10.37,2013-01-13 20:03:00,
2013-01-13 20:08:00,39.1,39.1,30.00,SW,220,0.0,0.0,100,0.00,CLR,,0.06,0.0,WeatherDisplay:10.37,2013-01-13 20:08:00,
2013-01-13 20:14:00,39.1,39.1,30.00,WNW,282,1.2,1.2,100,0.00,CLR,,0.06,0.0,WeatherDisplay:10.37,2013-01-13 20:14:00,
2013-01-13 20:19:00,39.2,39.2,30.00,SW,224,2.3,2.3,100,0.00,CLR,,0.06,0.0,WeatherDisplay:10.37,2013-01-13 20:19:00,
2013-01-13 20:24:00,39.3,39.3,30.00,SW,224,0.0,0.0,100,0.00,CLR,,0.06,0.0,WeatherDisplay:10.37,2013-01-13 20:24:00,
2013-01-13 20:29:00,39.6,39.6,29.99,WSW,237,2.3,2.3,100,0.00,CLR,,0.06,0.0,WeatherDisplay:10.37,2013-01-13 20:29:00,
2013-01-13 20:35:00,39.8,39.8,29.99,NNW,328,3.0,3.0,100,0.00,CLR,,0.06,0.0,WeatherDisplay:10.37,2013-01-13 20:35:00,
2013-01-13 20:40:00,39.8,39.8,29.99,NNW,340,2.3,2.3,100,0.00,CLR,,0.06,0.0,WeatherDisplay:10.37,2013-01-13 20:40:00,
2013-01-13 20:45:00,39.9,39.9,29.99,West,270,1.2,0.0,100,0.00,,,0.06,0.0,WeatherDisplay:10.37,2013-01-13 20:45:00,
2013-01-13 20:50:00,39.9,39.9,29.99,WNW,299,0.0,0.0,100,0.00,,,0.06,0.0,WeatherDisplay:10.37,2013-01-13 20:50:00,
2013-01-13 20:55:00,39.8,39.8,29.99,NW,309,1.2,0.0,100,0.00,,,0.06,0.0,WeatherDisplay:10.37,2013-01-13 20:55:00,
2013-01-13 21:00:00,39.6,39.6,29.99,West,280,2.3,2.3,100,0.00,,,0.06,0.0,WeatherDisplay:10.37,2013-01-13 21:00:00,
2013-01-13 21:05:00,39.2,39.2,29.99,West,278,2.3,2.3,100,0.00,,,0.06,0.0,WeatherDisplay:10.37,2013-01-13 21:05:00,
2013-01-13 21:10:00,39.1,39.1,29.99,West,271,0.0,0.0,100,0.00,,,0.06,0.0,WeatherDisplay:10.37,2013-01-13 21:10:00,
2013-01-13 21:16:00,38.9,38.9,29.99,West,277,1.2,1.2,100,0.00,,,0.06,0.0,WeatherDisplay:10.37,2013-01-13 21:16:00,
2013-01-13 21:21:00,38.9,38.9,29.99,West,274,2.3,2.3,100,0.00,,,0.06,0.0,WeatherDisplay:10.37,2013-01-13 21:21:00,
2013-01-13 21:26:00,38.9,38.9,29.99,West,271,0.0,0.0,100,0.00,,,0.06,0.0,WeatherDisplay:10.37,2013-01-13 21:26:00,
2013-01-13 21:31:00,39.1,39.1,29.99,SW,232,2.0,2.0,100,0.00,,,0.06,0.0,WeatherDisplay:10.37,2013-01-13 21:31:00,
2013-01-13 21:36:00,39.1,39.1,29.99,NW,304,1.2,1.2,100,0.00,,,0.06,0.0,WeatherDisplay:10.37,2013-01-13 21:36:00,
2013-01-13 21:41:00,39.2,39.2,29.99,WNW,294,0.0,0.0,100,0.00,,,0.06,0.0,WeatherDisplay:10.37,2013-01-13 21:41:00,
2013-01-13 21:47:00,39.3,39.3,29.99,WNW,282,2.3,2.3,100,0.00,,,0.06,0.0,WeatherDisplay:10.37,2013-01-13 21:47:00,
2013-01-13 21:52:00,39.5,39.5,29.99,NW,316,0.0,0.3,100,0.00,,,0.06,0.0,WeatherDisplay:10.37,2013-01-13 21:52:00,
2013-01-13 21:57:00,39.5,39.5,29.99,NW,318,1.2,1.2,100,0.00,,,0.06,0.0,WeatherDisplay:10.37,2013-01-13 21:57:00,
2013-01-13 22:02:00,39.6,39.6,29.99,WNW,302,0.0,0.0,100,0.00,,,0.06,0.0,WeatherDisplay:10.37,2013-01-13 22:02:00,
2013-01-13 22:07:00,39.6,39.6,29.99,NW,304,0.0,0.0,100,0.00,,,0.06,0.0,WeatherDisplay:10.37,2013-01-13 22:07:00,
2013-01-13 22:12:00,39.6,39.6,29.99,NW,304,0.0,0.0,100,0.00,,,0.06,0.0,WeatherDisplay:10.37,2013-01-13 22:12:00,
2013-01-13 22:17:00,39.6,39.6,29.99,NW,305,0.0,0.0,100,0.00,,,0.07,0.0,WeatherDisplay:10.37,2013-01-13 22:17:00,
2013-01-13 22:22:00,39.6,39.6,29.98,WNW,299,0.0,0.0,100,0.01,RA,,0.07,0.0,WeatherDisplay:10.37,2013-01-13 22:22:00,
2013-01-13 22:27:00,39.8,39.8,29.98,WNW,302,0.0,0.0,100,0.01,RA,,0.07,0.0,WeatherDisplay:10.37,2013-01-13 22:27:00,
2013-01-13 22:32:00,39.8,39.8,29.98,NW,325,2.3,2.3,100,0.01,CLR,,0.07,0.0,WeatherDisplay:10.37,2013-01-13 22:32:00,
2013-01-13 22:38:00,39.8,39.8,29.98,North,0,0.0,0.0,100,0.01,CLR,,0.07,0.0,WeatherDisplay:10.37,2013-01-13 22:38:00,
2013-01-13 22:43:00,39.6,39.6,29.97,NW,318,0.0,0.0,100,0.01,CLR,,0.07,0.0,WeatherDisplay:10.37,2013-01-13 22:43:00,
2013-01-13 22:48:00,39.8,39.8,29.97,NNW,347,0.0,0.0,100,0.01,CLR,,0.07,0.0,WeatherDisplay:10.37,2013-01-13 22:48:00,
2013-01-13 22:53:00,39.6,39.6,29.97,North,0,0.0,0.0,100,0.01,CLR,,0.07,0.0,WeatherDisplay:10.37,2013-01-13 22:53:00,
2013-01-13 22:58:00,39.8,39.8,29.97,WNW,289,2.3,2.3,100,0.01,CLR,,0.07,0.0,WeatherDisplay:10.37,2013-01-13 22:58:00,
2013-01-13 23:03:00,39.8,39.8,29.97,WNW,294,1.2,1.2,100,0.01,CLR,,0.07,0.0,WeatherDisplay:10.37,2013-01-13 23:03:00,
2013-01-13 23:08:00,39.8,39.8,29.97,SW,227,0.0,0.0,100,0.01,CLR,,0.07,0.0,WeatherDisplay:10.37,2013-01-13 23:08:00,
2013-01-13 23:13:00,39.8,39.8,29.96,West,270,2.0,2.0,100,0.01,CLR,,0.07,0.0,WeatherDisplay:10.37,2013-01-13 23:13:00,
2013-01-13 23:19:00,39.9,39.9,29.96,SW,220,0.0,0.0,100,0.00,CLR,,0.07,0.0,WeatherDisplay:10.37,2013-01-13 23:19:00,
2013-01-13 23:24:00,39.8,39.8,29.97,SW,233,0.0,0.0,100,0.00,CLR,,0.07,0.0,WeatherDisplay:10.37,2013-01-13 23:24:00,
2013-01-13 23:29:00,39.6,39.6,29.97,WSW,239,1.2,0.0,100,0.00,CLR,,0.07,0.0,WeatherDisplay:10.37,2013-01-13 23:29:00,
2013-01-13 23:34:00,39.3,39.3,29.97,West,270,1.2,1.2,100,0.00,CLR,,0.07,0.0,WeatherDisplay:10.37,2013-01-13 23:34:00,
2013-01-13 23:39:00,39.2,39.2,29.96,WNW,282,0.0,0.0,100,0.00,CLR,,0.07,0.0,WeatherDisplay:10.37,2013-01-13 23:39:00,
2013-01-13 23:44:00,38.9,38.9,29.96,West,281,0.0,0.0,100,0.00,CLR,,0.07,0.0,WeatherDisplay:10.37,2013-01-13 23:44:00,
2013-01-13 23:49:00,38.8,38.8,29.96,West,274,0.0,0.0,100,0.00,CLR,,0.07,0.0,WeatherDisplay:10.37,2013-01-13 23:49:00,
2013-01-13 23:54:00,38.9,38.9,29.96,West,278,2.3,2.3,100,0.00,CLR,,0.07,0.0,WeatherDisplay:10.37,2013-01-13 23:54:00,
2013-01-13 23:59:00,38.8,38.8,29.97,WNW,282,2.0,2.0,100,0.00,CLR,,0.07,0.0,WeatherDisplay:10.37,2013-01-13 23:59:00,